Location: Newark
(42.8481°N, 0.4872°E)
Time: 08:07:57
(UTC+00:00)

Transit 2A Rocket - Pass Details

Date: 31 October 2020
Orbit: 588 x 914 km, 66.7° (Epoch: 29 November)

Event Time Altitude Azimuth Distance (km) Brightness Sun altitude
Rises 19:04:08 0° 312° (NW) 3,197 9.0 -24.8°
Reaches altitude 10° 19:07:33 10° 290° (WNW) 2,194 8.3 -25.4°
Maximum altitude 19:10:17 15° 257° (WSW) 1,818 7.8 -25.9°
Drops below altitude 10° 19:12:55 10° 222° (SW) 2,074 7.7 -26.4°
Sets 19:16:00 0° 199° (SSW) 2,921 8.2 -27.0°
